Weather History for Coatesville, PA

Change the Weather History Date:

Friday, January 17, 2014

  Actual Average (KLNS) Record (KLNS)
Temperature  
Mean Temperature 34 °F -  
Max Temperature 41 °F 38 °F 59 °F (1990)
Min Temperature 26 °F 18 °F -6 °F (1982)
Degree Days  
Heating Degree Days 32    
Moisture  
Dew Point 27 °F    
Average Humidity 78    
Maximum Humidity 100    
Minimum Humidity 55    
Precipitation  
Precipitation 0.00 in - - ()
Sea Level Pressure  
Sea Level Pressure 29.92 in    
Wind  
Wind Speed 1 mph (ESE)    
Max Wind Speed 10 mph    
Max Gust Speed -    
Visibility 10 miles    
Events      
Averages and records for this station are not official NWS values.
T = Trace of Precipitation, MM = Missing Value Source: NWS Daily Summary

Daily Weather History Graph

Daily Weather History Graph

Search for Another Location

Airport:

Trip Planner

Search our weather history database for the weather conditions in past years. The results will help you decide how hot, cold, wet, or windy it might be!

Date:

Astronomy

Jan. 17, 2014 Rise Set
Actual Time 7:22 AM EST 5:05 PM EST
Civil Twilight 6:52 AM EST 5:34 PM EST
Nautical Twilight 6:19 AM EST 6:07 PM EST
Astronomical Twilight 5:47 AM EST 6:40 PM EST
Moon 6:49 PM EST (1/17) 7:49 AM EST (1/17)
Length of Visible Light 10h 41m
Length of Day
9h 42m
Full, 98% of the Moon is Illuminated
Jan 17
Full
Jan 24
Last Quarter
Jan 30
New
Feb 6
First Quarter
Feb 14
Full

Hourly Weather History & Observations

Time (EST) Temp. Windchill Dew Point Humidity Pressure Visibility Wind Dir Wind Speed Gust Speed Precip Events Conditions
12:15 AM 28.4 °F - 17.6 °F 64% 29.95 in 10.0 mi Calm Calm - N/A   Clear
12:35 AM 28.4 °F - 17.6 °F 64% 29.94 in 10.0 mi Calm Calm - N/A   Clear
12:55 AM 30.2 °F - 17.6 °F 60% 29.94 in 10.0 mi Calm Calm - N/A   Clear
1:15 AM 30.2 °F - 15.8 °F 55% 29.93 in 10.0 mi Calm Calm - N/A   Clear
1:35 AM 30.2 °F - 17.6 °F 60% 29.93 in 10.0 mi Calm Calm - N/A   Partly Cloudy
1:55 AM 30.2 °F - 17.6 °F 60% 29.93 in 10.0 mi Calm Calm - N/A   Mostly Cloudy
2:15 AM 30.2 °F - 17.6 °F 60% 29.94 in 10.0 mi Calm Calm - N/A   Mostly Cloudy
2:35 AM 30.2 °F - 19.4 °F 64% 29.94 in 10.0 mi Calm Calm - N/A   Mostly Cloudy
2:55 AM 28.4 °F - 21.2 °F 74% 29.93 in 10.0 mi Calm Calm - N/A   Overcast
3:15 AM 30.2 °F - 23.0 °F 75% 29.93 in 10.0 mi Calm Calm - N/A   Overcast
3:35 AM 30.2 °F - 23.0 °F 75% 29.92 in 10.0 mi Calm Calm - N/A   Mostly Cloudy
3:55 AM 28.4 °F - 23.0 °F 80% 29.92 in 10.0 mi Calm Calm - N/A   Partly Cloudy
4:15 AM 28.4 °F - 23.0 °F 80% 29.92 in 10.0 mi Calm Calm - N/A   Clear
4:35 AM 28.4 °F - 23.0 °F 80% 29.92 in 10.0 mi Calm Calm - N/A   Clear
4:55 AM 28.4 °F - 23.0 °F 80% 29.92 in 10.0 mi Calm Calm - N/A   Partly Cloudy
5:15 AM 28.4 °F - 24.8 °F 86% 29.91 in 10.0 mi Calm Calm - N/A   Partly Cloudy
5:35 AM 26.6 °F - 24.8 °F 93% 29.92 in 10.0 mi Calm Calm - N/A   Partly Cloudy
5:55 AM 28.4 °F - 26.6 °F 93% 29.92 in 10.0 mi Calm Calm - N/A   Mostly Cloudy
6:15 AM 28.4 °F - 28.4 °F 100% 29.92 in 10.0 mi Calm Calm - N/A   Overcast
6:55 AM 26.6 °F - 26.6 °F 100% 29.93 in 8.0 mi Calm Calm - N/A   Unknown
7:15 AM 26.6 °F - 26.6 °F 100% 29.93 in 7.0 mi Calm Calm - N/A   Clear
7:35 AM 26.6 °F - 26.6 °F 100% 29.93 in 5.0 mi Calm Calm - N/A   Scattered Clouds
7:55 AM 28.4 °F - 26.6 °F 93% 29.94 in 5.0 mi Calm Calm - N/A   Partly Cloudy
8:15 AM 30.2 °F - 28.4 °F 93% 29.94 in 6.0 mi Calm Calm - N/A   Clear
8:35 AM 30.2 °F - 30.2 °F 100% 29.95 in 6.0 mi Calm Calm - N/A   Clear
8:55 AM 32.0 °F - 30.2 °F 93% 29.95 in 6.0 mi Calm Calm - N/A   Partly Cloudy
9:15 AM 32.0 °F - 30.2 °F 93% 29.96 in 8.0 mi Calm Calm - N/A   Partly Cloudy
9:35 AM 32.0 °F - 32.0 °F 100% 29.97 in 7.0 mi Calm Calm - N/A   Clear
9:55 AM 32.0 °F 28.7 °F 32.0 °F 100% 29.96 in 8.0 mi SSE 3.5 mph - N/A   Clear
10:15 AM 33.8 °F 30.8 °F 32.0 °F 93% 29.96 in 9.0 mi South 3.5 mph - N/A   Partly Cloudy
10:35 AM 35.6 °F 31.7 °F 32.0 °F 87% 29.96 in 10.0 mi SSE 4.6 mph - N/A   Mostly Cloudy
10:55 AM 37.4 °F 33.8 °F 32.0 °F 81% 29.95 in 10.0 mi SSE 4.6 mph - N/A   Mostly Cloudy
11:15 AM 37.4 °F 34.9 °F 30.2 °F 75% 29.95 in 10.0 mi SSE 3.5 mph - N/A   Partly Cloudy
11:35 AM 37.4 °F 34.9 °F 30.2 °F 75% 29.94 in 10.0 mi SE 3.5 mph - N/A   Partly Cloudy
11:55 AM 37.4 °F 33.8 °F 30.2 °F 75% 29.93 in 10.0 mi SW 4.6 mph - N/A   Clear
12:15 PM 39.2 °F 35.9 °F 30.2 °F 70% 29.93 in 10.0 mi SSE 4.6 mph - N/A   Clear
12:35 PM 39.2 °F 37.0 °F 30.2 °F 70% 29.93 in 10.0 mi West 3.5 mph - N/A   Clear
12:55 PM 39.2 °F 35.9 °F 30.2 °F 70% 29.92 in 10.0 mi West 4.6 mph - N/A   Partly Cloudy
1:15 PM 39.2 °F - 30.2 °F 70% 29.92 in 10.0 mi Calm Calm - N/A   Mostly Cloudy
1:35 PM 39.2 °F - 28.4 °F 65% 29.91 in 10.0 mi Calm Calm - N/A   Mostly Cloudy
1:55 PM 41.0 °F - 28.4 °F 61% 29.91 in 10.0 mi Calm Calm - N/A   Scattered Clouds
2:15 PM 41.0 °F - 28.4 °F 61% 29.91 in 10.0 mi Calm Calm - N/A   Clear
2:35 PM 41.0 °F - 28.4 °F 61% 29.91 in 10.0 mi Calm Calm - N/A   Clear
2:55 PM 41.0 °F 39.0 °F 26.6 °F 57% 29.90 in 10.0 mi East 3.5 mph - N/A   Clear
3:15 PM 41.0 °F 39.0 °F 28.4 °F 61% 29.90 in 10.0 mi ESE 3.5 mph - N/A   Clear
3:35 PM 41.0 °F - 28.4 °F 61% 29.90 in 10.0 mi Calm Calm - N/A   Clear
3:55 PM 39.2 °F 37.0 °F 30.2 °F 70% 29.90 in 10.0 mi ESE 3.5 mph - N/A   Clear
4:15 PM 39.2 °F - 28.4 °F 65% 29.90 in 10.0 mi Calm Calm - N/A   Clear
4:35 PM 39.2 °F 37.0 °F 28.4 °F 65% 29.90 in 10.0 mi ESE 3.5 mph - N/A   Clear
4:55 PM 39.2 °F - 28.4 °F 65% 29.91 in 10.0 mi Calm Calm - N/A   Clear
5:15 PM 37.4 °F - 28.4 °F 70% 29.92 in 10.0 mi Calm Calm - N/A   Clear
5:35 PM 37.4 °F - 28.4 °F 70% 29.92 in 10.0 mi Calm Calm - N/A   Clear
5:55 PM 37.4 °F 34.9 °F 28.4 °F 70% 29.92 in 10.0 mi SE 3.5 mph - N/A   Clear
6:15 PM 35.6 °F 32.8 °F 28.4 °F 75% 29.92 in 10.0 mi NNE 3.5 mph - N/A   Clear
6:35 PM 35.6 °F 29.9 °F 28.4 °F 75% 29.91 in 10.0 mi East 6.9 mph - N/A   Clear
6:55 PM 33.8 °F 30.8 °F 28.4 °F 81% 29.92 in 10.0 mi East 3.5 mph - N/A   Clear
7:15 PM 37.4 °F 34.9 °F 28.4 °F 70% 29.92 in 10.0 mi East 3.5 mph - N/A   Clear
7:35 PM 35.6 °F 32.8 °F 30.2 °F 81% 29.92 in 10.0 mi ESE 3.5 mph - N/A   Clear
7:55 PM 35.6 °F 32.8 °F 30.2 °F 81% 29.91 in 10.0 mi ESE 3.5 mph - N/A   Clear
8:15 PM 33.8 °F 30.8 °F 30.2 °F 87% 29.91 in 10.0 mi East 3.5 mph - N/A   Clear
8:35 PM 33.8 °F 29.6 °F 30.2 °F 87% 29.91 in 10.0 mi East 4.6 mph - N/A   Clear
8:55 PM 32.0 °F - 28.4 °F 87% 29.90 in 10.0 mi Calm Calm - N/A   Clear
9:15 PM 32.0 °F - 30.2 °F 93% 29.90 in 10.0 mi Calm Calm - N/A   Clear
9:35 PM 32.0 °F - 30.2 °F 93% 29.90 in 10.0 mi Calm Calm - N/A   Clear
9:55 PM 32.0 °F - 30.2 °F 93% 29.89 in 10.0 mi Calm Calm - N/A   Clear
10:15 PM 33.8 °F 27.7 °F 30.2 °F 87% 29.88 in 10.0 mi East 6.9 mph - N/A   Clear
10:35 PM 33.8 °F 30.8 °F 30.2 °F 87% 29.87 in 10.0 mi ENE 3.5 mph - N/A   Clear
10:55 PM 33.8 °F 27.0 °F 30.2 °F 87% 29.86 in 10.0 mi ENE 8.1 mph - N/A   Clear
11:15 PM 35.6 °F 30.7 °F 30.2 °F 81% 29.85 in 10.0 mi ENE 5.8 mph - N/A   Clear
11:35 PM 35.6 °F 28.0 °F 30.2 °F 81% 29.84 in 10.0 mi East 10.4 mph - N/A   Clear
11:55 PM 35.6 °F 29.9 °F 30.2 °F 81% 29.83 in 10.0 mi ENE 6.9 mph - N/A   Clear